Location: Isles
(48.9125°N, 2.8272°E)
Time: 13:36:41
(UTC+00:00)

Cosmos 1328 - Pass Details

Date: 03 February 2023
Orbit: 519 x 543 km, 82.5° (Epoch: 29 March)

Event Time Altitude Azimuth Distance (km) Brightness Sun altitude
Rises 17:46:05 0° 189° (S) 2,699 7.7 -9.7°
Reaches altitude 10° 17:48:15 10° 190° (S) 1,808 6.8 -10.0°
Maximum altitude 17:52:14 86° 279° (W) 550 3.8 -10.7°
Drops below altitude 10° 17:56:13 10° 9° (N) 1,808 6.2 -11.3°
Sets 17:58:22 0° 10° (N) 2,700 7.1 -11.6°
